Location: Montichiari
(45.4167°N, 10.3833°E)
Time: 02:42:25
(UTC+00:00)

Daily predictions for brighter satellites

Satellite Brightness Start Highest point End
(mag) Time Altitude Azimuth Time Altitude Azimuth Time Altitude Azimuth
Cosmos 2297 Rocket 4.5 00:32:32 20° NNE 00:32:32 20° NNE 00:34:09 10° NNE
CZ-4C R/B 4.2 00:49:42 26° NE 00:49:42 26° NE 00:52:18 10° NE
SL-16 R/B 3.8 01:21:34 33° N 01:21:34 33° N 01:24:45 10° NNW
Resurs 1-4 Rocket 3.8 01:18:18 10° NNE 01:21:07 31° NE 01:21:07 31° NE
Cosmos 2227 Rocket 3.9 01:32:33 25° N 01:32:33 25° N 01:35:14 10° NNE
Cosmos 2263 Rocket 4.1 01:37:34 21° ESE 01:38:10 22° E 01:42:22 10° NE
ADEOS Rocket 4.2 01:35:27 10° N 01:39:29 36° NNW 01:39:29 36° NNW
Cosmos 1655 Rocket 4.4 01:37:16 10° N 01:42:51 60° NE 01:42:51 60° NE
Lacrosse 5 rocket 4.1 01:56:20 14° NNE 01:56:20 14° NNE 01:57:10 10° NNE
Gbstr 26 Del rocket 4.4 01:59:59 60° NW 02:01:34 80° NNE 02:09:45 10° ESE
CZ-2D R/B 3.2 01:56:25 10° N 01:59:37 38° N 01:59:37 38° N
ARIANE 5 R/B 3.5 02:05:18 10° N 02:08:37 41° N 02:08:37 41° N
Cosmos 2279 Rocket 3.9 02:12:09 82° N 02:12:09 82° N 02:18:06 10° N
Cosmos 2297 Rocket 3.9 02:14:20 22° NNW 02:14:20 22° NNW 02:17:35 10° N
SL-8 R/B 4.5 02:29:03 45° ESE 02:29:03 45° ESE 02:32:57 10° ENE
Cosmos 1437 Rocket 4.0 02:28:56 10° N 02:31:57 40° NE 02:31:57 40° NE
CZ-4C R/B 3.7 02:34:54 25° NW 02:35:36 26° NNW 02:40:50 10° NNE
Abrixas rocket 4.3 02:43:02 27° ENE 02:43:02 27° ENE 02:44:40 10° ENE
Cosmos 1812 4.0 02:43:08 34° N 02:43:08 34° N 02:45:26 10° N
USA 215 4.4 02:35:43 10° E 02:41:39 38° NNE 02:47:24 11° NW
Cosmos 1975 Rocket 3.4 02:42:31 57° SE 02:42:59 61° E 02:47:21 10° NNE
ASTEX 1 3.6 02:38:16 10° N 02:43:13 69° E 02:44:44 43° SSE
ADEOS II 2.6 02:39:58 10° NNE 02:45:09 55° E 02:48:06 25° S
DELTA 2 R/B (1) 3.9 02:49:44 46° S 02:49:44 46° S 02:55:00 10° ESE
SL-24 DEB 4.2 02:55:31 10° N 03:00:20 80° W 03:01:29 52° SSW
Resurs 1-4 Rocket 3.5 02:58:52 10° N 03:02:11 22° NW 03:02:11 22° NW
Intercosmos 25 Rocket 4.2 03:03:26 14° SSE 03:06:34 44° E 03:09:41 10° NNE
Cosmos 1378 Rocket 4.5 03:13:25 32° NW 03:13:25 32° NW 03:16:38 10° N
Cosmos 1943 3.5 03:07:19 10° NW 03:14:48 29° SSW 03:17:55 10° S
Meteor 1-18 Rocket 4.2 03:10:54 27° SSW 03:14:16 74° WNW 03:20:13 10° N
Cosmos 1932 4.5 03:12:02 33° SW 03:15:15 84° NW 03:21:52 10° NE
Cosmos 1741 Rocket 4.0 03:15:20 40° SW 03:17:06 66° WNW 03:22:21 10° NNE
Cosmos 1140 Rocket 4.2 03:18:39 34° WNW 03:19:16 35° WNW 03:24:05 10° N
Cosmos 2266 Rocket 4.1 03:14:53 10° NNW 03:21:05 52° W 03:27:14 10° SSW
Cosmos 2263 Rocket 2.2 03:19:18 35° SW 03:21:35 62° WNW 03:27:16 10° NNE
Cosmos 468 Rocket 4.0 03:18:35 10° NNW 03:23:57 88° WSW 03:29:15 10° SSE
Cosmos 220 Rocket 4.1 03:23:39 45° WSW 03:24:27 53° WNW 03:28:44 10° NNE
PAYLOAD B 4.4 03:23:32 10° NNE 03:29:05 73° ESE 03:34:34 10° S
Cosmos 1975 3.0 03:25:17 10° NNW 03:29:15 49° W 03:31:02 28° SSW
Atlas Centaur 2 3.9 03:28:49 17° SSW 03:30:15 18° S 03:33:51 10° SE
Cosmos 1666 2.7 03:28:21 10° N 03:32:08 80° E 03:35:56 10° S
PSLV R/B 3.7 03:30:59 10° N 03:34:47 61° WNW 03:36:25 31° SW
Lacrosse 5 rocket 3.7 03:32:30 10° NNW 03:34:49 15° N 03:37:04 10° NE
Landsat 4 4.1 03:31:07 10° SSE 03:34:54 65° ENE 03:38:42 10° N
Okean O Rocket 1.5 03:30:45 10° NNE 03:35:07 89° ESE 03:39:28 10° SSW
Meteor 1-31 Rocket 4.0 03:32:55 10° NNE 03:36:39 43° E 03:40:19 10° S
Cosmos 1850 Rocket 4.4 03:35:22 29° WSW 03:37:35 44° WNW 03:42:40 10° N
Cosmos 332 Rocket 3.9 03:33:27 10° NNW 03:38:04 48° WSW 03:42:40 10° S
Okean 1 3.8 03:37:33 35° WSW 03:38:16 38° WNW 03:42:03 10° N
Cosmos 1607 4.2 03:36:52 26° WSW 03:40:20 53° NW 03:46:37 10° NNE
CZ-2D R/B 4.0 03:39:01 10° NW 03:40:48 12° NW 03:40:56 12° NW
Cosmos 1763 Rocket 3.7 03:36:23 10° NNW 03:41:43 78° ENE 03:47:02 10° SSE
ATLAS 5 CENTAUR R/B 3.2 03:36:40 10° NNW 03:42:22 51° NE 03:48:38 10° ESE
Cosmos 371 Rocket 3.4 03:37:41 10° NNW 03:42:27 53° WSW 03:47:09 10° S
Cosmos 1743 2.7 03:40:39 10° NNW 03:44:29 56° W 03:48:18 10° S
Cosmos 1244 Rocket 4.5 03:39:28 10° NNW 03:45:48 72° W 03:52:07 10° S
TELKOM 3 2.7 03:45:41 68° WSW 03:45:55 89° S 03:48:04 10° ENE
ARIANE 5 R/B 4.5 03:47:00 10° NW 03:48:37 11° NW 03:48:57 11° WNW
CZ-2C R/B 3.9 03:45:10 10° SSE 03:49:52 83° ENE 03:54:41 10° NNW
ATLAS 3B R/B 2.9 03:45:06 10° SSW 03:52:31 84° SE 03:59:40 10° NE
Meteor 1-13 Rocket 4.3 03:46:44 10° SSW 03:52:41 84° W 03:58:39 10° N
Meteor 1-4 Rocket 2.6 03:52:31 10° NNW 03:55:54 47° W 03:59:14 10° S
Meteor PRIRODA 3.6 03:53:28 10° NNE 03:57:11 88° WNW 04:00:53 10° SSW
COSMO-SKYMED 1 4.0 03:54:14 10° SE 03:58:18 41° ENE 04:02:23 10° N
ATLAS CENTAUR R/B 3.9 03:55:36 10° SSE 03:58:22 19° ESE 04:01:04 10° ENE
CZ-4B R/B 3.1 03:54:12 10° N 03:59:29 73° WNW 04:04:47 10° SSW
CZ-4B R/B 3.5 03:57:50 10° N 04:01:36 35° WNW 04:04:22 15° SW
MTI 3.9 04:00:34 10° SSE 04:03:49 82° ENE 04:07:05 10° N
Meteor 1-28 Rocket 3.5 04:01:11 10° SSE 04:04:53 69° ENE 04:08:39 10° N
GEOS 3 Rocket 4.0 04:02:41 10° SE 04:07:52 70° NE 04:13:09 10° NW
PSLV R/B 4.3 04:05:14 10° N 04:08:59 32° WNW 04:12:35 11° SW
Meteor 2-4 Rocket 3.7 04:03:29 10° SSW 04:09:04 83° W 04:14:53 10° N
SL-8 R/B 3.8 04:07:02 16° W 04:10:48 69° NNW 04:15:36 10° ENE
Meteor 1-19 Rocket 4.5 04:11:35 10° SSW 04:17:17 52° WNW 04:22:56 10° N
Abrixas rocket 2.8 04:15:36 14° WNW 04:18:14 47° N 04:21:23 10° ENE
CZ-4B R/B 3.9 04:16:31 10° N 04:20:22 61° WNW 04:24:23 10° SSW
SJ-6F 4.4 04:16:49 10° N 04:20:59 75° WNW 04:25:06 10° SSW
Meteor 2-9 Rocket 4.3 04:17:50 10° NNW 04:23:06 53° W 04:28:29 10° S
TSX-5 4.0 04:19:26 10° NNW 04:23:20 63° ENE 04:26:36 10° SE
Cosmos 1455 Rocket 4.2 04:20:50 10° NW 04:24:05 21° W 04:27:20 10° SW
USA 215 3.5 04:17:37 10° ESE 04:24:08 78° NE 04:30:42 10° NW
ADEOS II 3.3 04:20:28 10° NNW 04:24:29 23° WNW 04:28:30 10° WSW
IRS-1C Rocket 4.4 04:20:30 10° N 04:25:35 48° WNW 04:30:38 10° SW
Cosmos 304 Rocket 3.8 04:20:50 10° NNW 04:25:37 61° WSW 04:30:21 10° S
Cosmos 1745 Rocket 4.1 04:27:11 10° NNW 04:33:26 59° W 04:39:36 10° S
COSMOS 2406 3.4 04:28:26 10° NW 04:34:04 54° WSW 04:39:40 10° S
CZ-2C R/B 4.1 04:31:41 10° NNE 04:35:56 36° E 04:40:14 10° SSE
Cosmos 1271 Rocket 2.8 04:32:08 10° NNW 04:36:06 65° W 04:40:04 10° S
Cosmos 1503 Rocket 4.3 04:33:43 10° SSW 04:39:03 76° ESE 04:44:28 10° NNE
Okean-O 2.6 04:35:28 10° N 04:39:55 77° WNW 04:44:20 10° SSW
Cosmos 1354 Rocket 4.3 04:34:40 10° SSW 04:39:58 77° ESE 04:45:20 10° NNE
Cosmos 2278 Rocket 3.2 04:35:15 10° S 04:40:43 53° ESE 04:46:14 10° NE
NOSS 3-2 (A) 3.7 04:34:53 10° SSW 04:40:53 80° SE 04:47:33 10° NE
CZ-3 R/B 3.7 04:28:56 10° WSW 04:40:54 24° SSW 04:45:51 10° SE
Cosmos 1553 Rocket 4.2 04:35:49 10° SSW 04:41:40 46° WNW 04:47:30 10° N
Cosmos 2315 Rocket 4.5 04:36:38 10° S 04:42:49 70° E 04:49:06 10° NNE
